This is the latest recevied weather packets stored in our database for station/object K5IDL. If no packets are shown the sender has not sent any weather packets the latest 1 day(s).
| Time | Temp. | Humidity | Pressure | Rain* | Wind** | Luminosity | Snow |
|---|---|---|---|---|---|---|---|
| 1778022122 | 30° C | 50% | 1005.1 hPa | 0 mm | 0.45 m/s, 173° | 54 W/m² | - |
| 1778021819 | 30° C | 49% | 1005 hPa | 0 mm | 0.45 m/s, 282° | 57 W/m² | - |
| 1778021515 | 30.56° C | 48% | 1005.2 hPa | 0 mm | 0.45 m/s, 7° | 50 W/m² | - |
| 1778021211 | 31.11° C | 47% | 1005.2 hPa | 0 mm | 0.45 m/s, 57° | 57 W/m² | - |
| 1778020909 | 31.11° C | 47% | 1004.9 hPa | 0 mm | 0.89 m/s, 255° | 64 W/m² | - |
| 1778020607 | 31.67° C | 47% | 1005.1 hPa | 0 mm | 0.45 m/s, 262° | 63 W/m² | - |
| 1778020302 | 32.22° C | 53% | 1004.6 hPa | 0 mm | 0 m/s | 54 W/m² | - |
| 1778019998 | 32.22° C | 53% | 1004.4 hPa | 0 mm | 0 m/s | 60 W/m² | - |
| 1778019695 | 32.22° C | 53% | 1004.5 hPa | 0 mm | 0.45 m/s, 298° | 58 W/m² | - |
| 1778019392 | 32.22° C | 53% | 1004.4 hPa | 0 mm | 0.45 m/s, 335° | 59 W/m² | - |
| 1778019089 | 32.22° C | 53% | 1004.3 hPa | 0 mm | 0.45 m/s, 359° | 118 W/m² | - |
| 1778018787 | 32.22° C | 53% | 1004.5 hPa | 0 mm | 0 m/s | 141 W/m² | - |
| 1778018484 | 32.78° C | 53% | 1004.5 hPa | 0 mm | 0 m/s | 58 W/m² | - |
| 1778018181 | 32.78° C | 53% | 1004.8 hPa | 0 mm | 0 m/s | 85 W/m² | - |
| 1778017879 | 32.22° C | 52% | 1004.6 hPa | 0 mm | 0.45 m/s, 296° | 87 W/m² | - |
| 1778017577 | 32.22° C | 53% | 1004.8 hPa | 0 mm | 0.45 m/s, 232° | 62 W/m² | - |
| 1778017274 | 32.22° C | 52% | 1004.6 hPa | 0 mm | 1.34 m/s, 275° | 60 W/m² | - |
| 1778016971 | 32.78° C | 53% | 1004.7 hPa | 0 mm | 0.45 m/s, 292° | 79 W/m² | - |
| 1778016668 | 32.22° C | 54% | 1004.7 hPa | 0 mm | 0.89 m/s, 302° | 102 W/m² | - |
| 1778016363 | 31.67° C | 55% | 1005 hPa | 0 mm | 0.45 m/s, 295° | 123 W/m² | - |
| 1778016066 | 31.67° C | 55% | 1004.7 hPa | 0 mm | 0.45 m/s, 315° | 72 W/m² | - |
| 1778015758 | 32.22° C | 54% | 1004.9 hPa | 0 mm | 0.89 m/s, 293° | 168 W/m² | - |
| 1778015456 | 31.67° C | 54% | 1005 hPa | 0 mm | 0.89 m/s, 275° | 90 W/m² | - |
| 1778015152 | 32.22° C | 54% | 1005.2 hPa | 0 mm | 0.45 m/s, 337° | 63 W/m² | - |
| 1778014849 | 32.22° C | 54% | 1005 hPa | 0 mm | 0.45 m/s, 246° | 67 W/m² | - |
* Rain latest hour (hover to see other rain measurements)
** Current wind speed in m/s (hover to see current wind gust speed)